Weather History for Sheridan, WY

Change the Weather History Date:

Thursday, May 16, 2013

  Actual Average Record
Temperature  
Mean Temperature 60 °F 52 °F  
Max Temperature 73 °F 67 °F 89 °F (1934)
Min Temperature 47 °F 38 °F 26 °F (1974)
Degree Days  
Heating Degree Days 5 13  
Month to date heating degree days 183 237  
Since 1 July heating degree days 7275 7338  
Cooling Degree Days 0 0  
Month to date cooling degree days 8 0  
Year to date cooling degree days 8 0  
Growing Degree Days 10 (Base 50)    
Moisture  
Dew Point 46 °F    
Average Humidity 61    
Maximum Humidity 83    
Minimum Humidity 38    
Precipitation  
Precipitation 0.04 in 0.08 in 1.77 in (1981)
Month to date precipitation 0.19 1.22  
Year to date precipitation 4.48 4.90  
Sea Level Pressure  
Sea Level Pressure 29.79 in    
Wind  
Wind Speed 5 mph (NW)    
Max Wind Speed 22 mph    
Max Gust Speed 26 mph    
Visibility 10 miles    
Events Rain    
T = Trace of Precipitation, MM = Missing Value Source: NWS Daily Summary

Daily Weather History Graph

Daily Weather History Graph

Search for Another Location

Airport:

Trip Planner

Search our weather history database for the weather conditions in past years. The results will help you decide how hot, cold, wet, or windy it might be!

Date:

Astronomy

May. 16, 2013 Rise Set
Actual Time 5:38 AM MDT 8:31 PM MDT
Civil Twilight 5:03 AM MDT 9:05 PM MDT
Nautical Twilight 4:20 AM MDT 9:49 PM MDT
Astronomical Twilight 3:29 AM MDT 10:40 PM MDT
Moon 11:19 AM MDT (5/16) 12:49 AM MDT (5/16)
Length of Visible Light 16h 01m
Length of Day
14h 52m
Waxing Crescent, 36% of the Moon is Illuminated
May 16
Waxing Crescent
May 17
First Quarter
May 24
Full
May 31
Last Quarter
Jun 8
New

Hourly Weather History & Observations

Time (MDT) Temp. Dew Point Humidity Pressure Visibility Wind Dir Wind Speed Gust Speed Precip Events Conditions
12:53 AM 57.9 °F 44.1 °F 60% 29.78 in 10.0 mi West 12.7 mph - N/A   Mostly Cloudy
1:53 AM 57.0 °F 44.1 °F 62% 29.78 in 10.0 mi NNW 18.4 mph 26.5 mph N/A   Overcast
2:53 AM 52.0 °F 44.1 °F 74% 29.79 in 10.0 mi North 6.9 mph - N/A   Scattered Clouds
3:53 AM 52.0 °F 41.0 °F 66% 29.78 in 10.0 mi Calm Calm - N/A   Clear
4:53 AM 48.0 °F 43.0 °F 83% 29.78 in 10.0 mi WNW 4.6 mph - 0.00 in   Scattered Clouds
5:53 AM 48.0 °F 42.1 °F 80% 29.79 in 10.0 mi WNW 4.6 mph - N/A   Clear
6:53 AM 48.0 °F 43.0 °F 83% 29.80 in 10.0 mi Calm Calm - N/A   Clear
7:53 AM 51.1 °F 44.1 °F 77% 29.82 in 10.0 mi Calm Calm - N/A   Clear
8:53 AM 53.1 °F 46.0 °F 77% 29.82 in 10.0 mi Calm Calm - N/A   Clear
9:53 AM 57.0 °F 46.0 °F 67% 29.81 in 10.0 mi Calm Calm - N/A   Clear
10:53 AM 61.0 °F 48.0 °F 62% 29.81 in 10.0 mi Calm Calm - N/A   Clear
11:53 AM 66.0 °F 46.9 °F 50% 29.78 in 10.0 mi Calm Calm - N/A   Clear
12:53 PM 69.8 °F 46.4 °F 43% 29.84 in 10.0 mi Variable 4.6 mph - N/A   Clear
1:53 PM 71.1 °F 44.1 °F 38% 29.74 in 10.0 mi Variable 5.8 mph - N/A   Scattered Clouds
2:53 PM 71.1 °F 44.1 °F 38% 29.72 in 10.0 mi Calm Calm - N/A   Clear
3:53 PM 71.6 °F 44.6 °F 38% 29.78 in 10.0 mi SSE 3.5 mph - N/A   Scattered Clouds
4:53 PM 64.0 °F 44.1 °F 48% 29.75 in 9.0 mi Variable 3.5 mph 17.3 mph 0.04 in Rain Light Rain
5:53 PM 66.0 °F 51.1 °F 59% 29.73 in 10.0 mi SSE 8.1 mph - 0.00 in   Clear
6:53 PM 64.9 °F 51.1 °F 61% 29.74 in 10.0 mi NE 6.9 mph - N/A   Clear
7:53 PM 61.0 °F 51.1 °F 70% 29.78 in 10.0 mi NNE 5.8 mph - N/A   Partly Cloudy
8:53 PM 60.1 °F 51.1 °F 72% 29.80 in 10.0 mi NW 5.8 mph - 0.00 in   Mostly Cloudy
9:53 PM 55.9 °F 48.0 °F 75% 29.82 in 10.0 mi WNW 12.7 mph - N/A   Mostly Cloudy
10:53 PM 55.0 °F 48.9 °F 80% 29.83 in 10.0 mi WNW 11.5 mph - N/A   Overcast
11:53 PM 54.0 °F 48.9 °F 83% 29.82 in 10.0 mi WNW 10.4 mph - N/A   Mostly Cloudy